Weather History for Douglas, WY

Change the Weather History Date:

Friday, May 17, 2013

  Actual Average Record
Temperature  
Mean Temperature 68 °F 54 °F  
Max Temperature 84 °F 68 °F 84 °F (2013)
Min Temperature 51 °F 39 °F 34 °F (2009)
Degree Days  
Heating Degree Days 0 12  
Month to date heating degree days 185 244  
Since 1 July heating degree days 6951 7201  
Cooling Degree Days 3 0  
Month to date cooling degree days 13 0  
Year to date cooling degree days 13 0  
Growing Degree Days 18 (Base 50)    
Moisture  
Dew Point 43 °F    
Average Humidity 51    
Maximum Humidity 89    
Minimum Humidity 12    
Precipitation  
Precipitation 0.00 in 0.08 in 0.20 in (2011)
Month to date precipitation 0.32 1.35  
Year to date precipitation 3.14 4.50  
Sea Level Pressure  
Sea Level Pressure 29.70 in    
Wind  
Wind Speed 8 mph (WNW)    
Max Wind Speed 22 mph    
Max Gust Speed 28 mph    
Visibility 10 miles    
Events      
T = Trace of Precipitation, MM = Missing Value Source: NWS Daily Summary

Daily Weather History Graph

Daily Weather History Graph

Search for Another Location

Airport:

Trip Planner

Search our weather history database for the weather conditions in past years. The results will help you decide how hot, cold, wet, or windy it might be!

Date:

Astronomy

May. 17, 2013 Rise Set
Actual Time 5:36 AM MDT 8:19 PM MDT
Civil Twilight 5:03 AM MDT 8:52 PM MDT
Nautical Twilight 4:22 AM MDT 9:34 PM MDT
Astronomical Twilight 3:35 AM MDT 10:21 PM MDT
Moon 12:15 PM MDT (5/17) 1:10 AM MDT (5/17)
Length of Visible Light 15h 48m
Length of Day
14h 43m
Waxing Crescent, 46% of the Moon is Illuminated
May 17
Waxing Crescent
May 17
First Quarter
May 24
Full
May 31
Last Quarter
Jun 8
New

Hourly Weather History & Observations

Time (MDT) Temp. Dew Point Humidity Pressure Visibility Wind Dir Wind Speed Gust Speed Precip Events Conditions
12:53 AM 54.0 °F 48.9 °F 83% 29.73 in 10.0 mi NW 9.2 mph - N/A   Scattered Clouds
1:53 AM 54.0 °F 50.0 °F 86% 29.73 in 10.0 mi Calm Calm - N/A   Mostly Cloudy
2:53 AM 54.0 °F 48.9 °F 83% 29.74 in 10.0 mi North 3.5 mph - N/A   Overcast
3:53 AM 53.1 °F 50.0 °F 89% 29.72 in 10.0 mi NNW 4.6 mph - N/A   Mostly Cloudy
4:53 AM 53.1 °F 50.0 °F 89% 29.74 in 10.0 mi Calm Calm - N/A   Clear
6:53 AM 53.1 °F 50.0 °F 89% 29.75 in 10.0 mi Calm Calm - N/A   Mostly Cloudy
7:53 AM 57.0 °F 51.1 °F 81% 29.75 in 10.0 mi Calm Calm - N/A   Clear
8:53 AM 63.0 °F 50.0 °F 63% 29.73 in 10.0 mi SSE 3.5 mph - N/A   Clear
9:53 AM 68.0 °F 48.9 °F 50% 29.71 in 10.0 mi ESE 8.1 mph - N/A   Clear
10:53 AM 71.1 °F 48.9 °F 45% 29.70 in 10.0 mi SSE 10.4 mph - N/A   Clear
11:53 AM 72.0 °F 48.9 °F 44% 29.70 in 10.0 mi SE 9.2 mph - N/A   Clear
1:53 PM 79.0 °F 37.0 °F 22% 29.65 in 10.0 mi SSW 6.9 mph - N/A   Partly Cloudy
2:53 PM 81.0 °F 37.0 °F 21% 29.63 in 10.0 mi WNW 8.1 mph - N/A   Clear
3:53 PM 82.9 °F 37.0 °F 19% 29.61 in 10.0 mi NW 9.2 mph - N/A   Clear
4:53 PM 81.0 °F 30.0 °F 16% 29.60 in 10.0 mi WNW 10.4 mph - N/A   Clear
5:53 PM 80.1 °F 28.9 °F 15% 29.59 in 10.0 mi SW 13.8 mph - N/A   Clear
6:53 PM 79.0 °F 28.0 °F 15% 29.60 in 10.0 mi West 8.1 mph - N/A   Clear
7:53 PM 75.0 °F 19.0 °F 12% 29.62 in 10.0 mi WSW 13.8 mph - N/A   Clear
8:53 PM 71.1 °F 21.0 °F 15% 29.61 in 10.0 mi WSW 12.7 mph - N/A   Clear
9:24 PM 64.4 °F 44.6 °F 49% 29.82 in 10.0 mi NNW 15.0 mph - N/A   Clear
9:32 PM 62.6 °F 48.2 °F 59% 29.83 in 10.0 mi NNW 17.3 mph 26.5 mph N/A   Clear
9:53 PM 60.1 °F 48.9 °F 67% 29.71 in 10.0 mi NNW 16.1 mph 23.0 mph N/A   Clear
10:53 PM 57.0 °F 48.9 °F 74% 29.72 in 10.0 mi West 16.1 mph - N/A   Clear
11:01 PM 57.2 °F 48.2 °F 72% 29.88 in 10.0 mi WNW 11.5 mph 20.7 mph N/A   Clear
11:53 PM 55.0 °F 48.9 °F 80% 29.74 in 10.0 mi WNW 12.7 mph - N/A   Clear